Palmdale, CA

11:42 PM PST on December 17, 2017 (GMT -0800)
Palmdale Af Plant 42

Weather History for KPMD - May, 2011

Change the Weather History Date:

Sunday, May 15, 2011

  Actual Average Record
Temperature  
Mean Temperature 53 °F 68 °F  
Max Temperature 61 °F 83 °F 97 °F (1976)
Min Temperature 44 °F 52 °F 35 °F (1968)
Degree Days  
Heating Degree Days 12 2  
Month to date heating degree days 57 44  
Since 1 July heating degree days 2928 2894  
Cooling Degree Days 0 5  
Month to date cooling degree days 37 47  
Year to date cooling degree days 43 70  
Growing Degree Days 3 (Base 50)    
Moisture  
Dew Point 36 °F    
Average Humidity 58    
Maximum Humidity 93    
Minimum Humidity 23    
Precipitation  
Precipitation 0.01 in 0.01 in 0.15 in (1989)
Month to date precipitation 0.01 0.17  
Year to date precipitation 2.35 5.15  
Since 1 July precipitation 7.73  
Snow  
Snow 0.00 in - 0.00 in (1973)
Month to date snowfall 0.0  
Since 1 July snowfall 0.0  
Snow Depth 0.00 in    
Sea Level Pressure  
Sea Level Pressure 29.93 in    
Wind  
Wind Speed 17 mph (WSW)    
Max Wind Speed 28 mph    
Max Gust Speed 41 mph    
Visibility 10 miles    
Events Rain    
T = Trace of Precipitation, MM = Missing Value Source: NWS Daily Summary

Daily Weather History Graph

Daily Weather History Graph

Search for Another Location

Airport or City:

Trip Planner

Search our weather history database for the weather conditions in past years. The results will help you decide how hot, cold, wet, or windy it might be!

Date:

Astronomy

May. 15, 2011 Rise Set
Actual Time 5:49 AM PDT 7:48 PM PDT
Civil Twilight 5:21 AM PDT 8:16 PM PDT
Nautical Twilight 4:47 AM PDT 8:50 PM PDT
Astronomical Twilight 4:11 AM PDT 9:26 PM PDT
Moon 6:15 PM PDT (5/15) 4:11 AM PDT (5/15)
Length of Visible Light 14h 54m
Length of Day
13h 58m
Waxing Gibbous, 96% of the Moon is Illuminated
May 15
Waxing Gibbous
May 17
Full
May 24
Last Quarter
Jun 1
New
Jun 8
First Quarter

Hourly Weather History & Observations

Time (PDT) Temp. Windchill Dew Point Humidity Pressure Visibility Wind Dir Wind Speed Gust Speed Precip Events Conditions
12:53 AM 52.0 °F - 42.1 °F 69% 29.85 in 10.0 mi SW 17.3 mph 21.9 mph N/A   Mostly Cloudy
1:53 AM 52.0 °F - 39.9 °F 63% 29.84 in 10.0 mi WSW 12.7 mph - N/A   Mostly Cloudy
2:53 AM 51.1 °F - 41.0 °F 68% 29.84 in 10.0 mi SW 13.8 mph - N/A   Overcast
3:53 AM 48.9 °F - 43.0 °F 80% 29.84 in 10.0 mi WSW 13.8 mph - 0.00 in   Overcast
4:53 AM 48.9 °F - 41.0 °F 74% 29.85 in 10.0 mi WSW 12.7 mph - 0.00 in   Overcast
5:53 AM 48.0 °F - 42.1 °F 80% 29.86 in 10.0 mi WSW 8.1 mph - 0.00 in   Overcast
6:53 AM 46.4 °F 40.4 °F 44.6 °F 93% 29.91 in 8.0 mi WNW 13.8 mph - N/A Rain Light Rain
7:53 AM 46.0 °F 39.6 °F 44.1 °F 93% 29.91 in 9.0 mi West 15.0 mph - 0.01 in Rain Light Rain
8:53 AM 48.9 °F - 42.1 °F 77% 29.93 in 10.0 mi West 17.3 mph - 0.00 in Rain Light Rain
9:53 AM 52.0 °F - 37.0 °F 57% 29.94 in 10.0 mi WSW 18.4 mph 26.5 mph 0.00 in   Mostly Cloudy
10:53 AM 54.0 °F - 35.1 °F 49% 29.95 in 10.0 mi WSW 19.6 mph 28.8 mph N/A   Scattered Clouds
11:53 AM 59.0 °F - 30.0 °F 33% 29.95 in 10.0 mi SW 24.2 mph 31.1 mph N/A   Clear
12:53 PM 57.9 °F - 28.9 °F 33% 29.94 in 10.0 mi SW 23.0 mph 31.1 mph N/A   Clear
1:53 PM 60.1 °F - 28.0 °F 30% 29.94 in 10.0 mi SW 20.7 mph 29.9 mph N/A   Clear
2:53 PM 60.1 °F - 23.0 °F 24% 29.93 in 10.0 mi SW 25.3 mph 28.8 mph N/A   Clear
3:53 PM 57.9 °F - 21.9 °F 25% 29.94 in 10.0 mi WSW 24.2 mph 29.9 mph N/A   Scattered Clouds
4:53 PM 55.9 °F - 26.1 °F 32% 29.95 in 10.0 mi WSW 19.6 mph - N/A   Overcast
5:53 PM 54.0 °F - 28.0 °F 37% 29.96 in 10.0 mi West 18.4 mph 24.2 mph N/A   Overcast
6:53 PM 52.0 °F - 34.0 °F 50% 29.97 in 10.0 mi WSW 16.1 mph 23.0 mph N/A   Overcast
7:53 PM 48.2 °F - 35.6 °F 62% 29.98 in 10.0 mi WSW 15.0 mph 24.2 mph N/A   Clear
8:53 PM 48.0 °F - 35.1 °F 61% 29.99 in 10.0 mi WSW 15.0 mph - N/A   Clear
9:53 PM 46.9 °F - 37.0 °F 68% 30.00 in 10.0 mi SW 12.7 mph - N/A   Clear
10:53 PM 46.0 °F 40.6 °F 37.0 °F 71% 30.01 in 10.0 mi SW 11.5 mph - N/A   Clear
11:53 PM 46.0 °F 41.0 °F 36.0 °F 68% 29.99 in 10.0 mi WSW 10.4 mph - N/A   Clear